CW9119 Weather Reports


Display with metric or nautical units.
time (UTC)temp
F
wind
direction
speed
MPH
gust
MPH
rain 1hr
in
rain 24hr
in
rain mn
in
humidity
%
barometer
mb
20190117085113 34 279 1.0 6.0 0.00 0.08 0.00 92 1001.0
20190117083113 33 272 3.0 7.0 0.00 0.08 0.00 93 1000.7
20190117082113 33 271 2.0 7.0 0.00 0.08 0.00 93 1000.8
20190117080113 33 281 1.0 5.0 0.00 0.08 0.00 92 1000.9
20190117075113 32 281 2.0 11.0 0.00 0.10 0.00 92 1000.9
20190117072112 33 286 3.0 7.0 0.00 0.10 0.00 91 1000.8
20190117070112 33 286 1.0 6.0 0.00 0.10 0.00 91 1000.6
20190117063112 33 280 1.0 7.0 0.00 0.12 0.00 91 999.8
20190117061112 33 246 2.0 7.0 0.00 0.12 0.00 92 999.9
20190117052111 32 287 2.0 7.0 0.00 0.13 0.00 94 999.9
20190117051111 32 202 1.0 10.0 0.00 0.13 0.00 95 999.7
20190117050111 32 238 3.0 8.0 0.00 0.13 0.00 95 999.8
20190117045111 32 196 0.0 4.0 0.00 0.15 0.00 95 999.7
20190117042111 31 128 2.0 11.0 0.00 0.15 0.00 96 999.9
20190117041111 30 168 3.0 13.0 0.00 0.15 0.00 96 999.8
20190117033110 29 151 0.0 7.0 0.00 0.18 0.00 96 1000.3
20190117032110 29 256 0.0 0.0 0.00 0.18 0.00 96 1000.4
20190117031110 29 256 0.0 0.0 0.00 0.18 0.00 96 1000.5
20190117025111 29 263 1.0 6.0 0.00 0.21 0.00 96 1000.7
20190117020109 29 109 0.0 1.0 0.00 0.21 0.00 96 1001.3
20190117013108 29 109 0.0 2.0 0.00 0.26 0.00 96 1001.4
20190117012109 30 109 0.0 1.0 0.00 0.26 0.00 96 1001.6
20190117010108 30 109 0.0 0.0 0.00 0.26 0.00 96 1001.8
20190117005108 30 109 0.0 0.0 0.00 0.28 0.00 96 1001.8
20190117001113 31 109 0.0 2.0 0.00 0.28 0.00 96 1002.3
20190117000113 31 109 1.0 5.0 0.00 0.28 0.00 96 1002.1
20190116235113 31 110 0.0 5.0 0.00 0.29 0.00 96 1002.2
20190116234113 31 107 0.0 2.0 0.00 0.29 0.00 96 1002.3
20190116232113 31 132 0.0 5.0 0.00 0.29 0.00 96 1002.7
20190116230113 31 134 1.0 5.0 0.00 0.29 0.00 96 1003.1
20190116225113 32 145 1.0 6.0 0.00 0.31 0.31 96 1003.3
20190116224113 32 142 0.0 2.0 0.00 0.31 0.31 96 1003.1
20190116215112 32 84 0.0 4.0 0.00 0.35 0.31 96 1004.0
20190116212112 32 83 0.0 1.0 0.00 0.35 0.31 96 1004.3
20190116203112 32 78 0.0 1.0 0.00 0.42 0.31 96 1004.5
20190116194112 32 142 1.0 5.0 0.00 0.51 0.31 96 1004.6
20190116191111 32 150 1.0 6.0 0.00 0.51 0.31 96 1005.1
20190116190111 33 169 1.0 5.0 0.00 0.51 0.31 96 1005.4
20190116182111 33 177 0.0 2.0 0.00 0.65 0.31 96 1005.7
20190116180110 33 178 0.0 0.0 0.00 0.65 0.31 96 1005.7
20190116175110 33 178 1.0 6.0 0.00 0.75 0.31 96 1005.8
20190116173110 33 178 0.0 1.0 0.00 0.75 0.31 96 1006.0
20190116172111 33 178 0.0 7.0 0.00 0.75 0.31 96 1006.2
20190116164110 33 167 1.0 5.0 0.00 0.81 0.31 96 1006.2
20190116161110 33 163 1.0 5.0 0.01 0.81 0.31 96 1006.4
20190116143109 34 282 0.0 2.0 0.01 0.81 0.31 97 1006.7
20190116142109 34 282 1.0 7.0 0.01 0.81 0.31 96 1006.7
20190116141109 34 283 0.0 0.0 0.02 0.81 0.31 97 1006.7
20190116135109 34 283 0.0 2.0 0.02 0.81 0.31 97 1006.6
20190116134109 34 281 0.0 0.0 0.02 0.80 0.30 97 1006.7
20190116132114 34 278 2.0 7.0 0.02 0.80 0.30 97 1006.9
20190116131114 34 280 1.0 7.0 0.02 0.80 0.29 97 1006.9
20190116121113 34 284 2.0 6.0 0.01 0.78 0.28 97 1007.5
20190116115113 34 263 0.0 2.0 0.02 0.78 0.28 97 1007.7
20190116114113 34 262 1.0 7.0 0.01 0.77 0.27 97 1007.8
20190116110113 34 262 1.0 4.0 0.01 0.76 0.26 97 1008.0
20190116105112 34 262 1.0 2.0 0.01 0.76 0.26 97 1008.1
20190116103113 34 262 1.0 8.0 0.02 0.76 0.26 97 1008.5
20190116102112 34 263 2.0 6.0 0.01 0.76 0.25 97 1008.5
20190116101113 34 263 3.0 7.0 0.02 0.76 0.25 97 1009.0
20190116100112 34 259 1.0 6.0 0.02 0.76 0.25 97 1008.9
20190116094112 34 272 1.0 5.0 0.02 0.75 0.24 97 1009.0
20190116093112 34 272 1.0 6.0 0.02 0.75 0.24 97 1009.1
20190116091112 34 271 1.0 6.0 0.02 0.74 0.24 97 1008.7
20190116090111 34 271 3.0 7.0 0.02 0.74 0.24 97 1009.0